Showing default

LES 2, 1360

Orbit data source: Space-Track

LES 2, 1360 is a payload satellite owned by USAF SSD (US) in HEO that was launched on Thu, 06 May 1965 UTC via a TITAN IIIA launch vehicle from the Air Force Eastern Test Range (AFETR). Payload-class satellites include a variety of spacecraft equipped with specific instruments for various scientific and technological missions. These include communications satellites like Starlink; space stations such as the ISS; scientific satellites like the Hubble; Earth observation satellites from companies like Planet Labs, Umbra, and HawkEye 360; GPS; miniature CubeSats for education and research; and military/defense satellites.

Loading next visibility...
Identifier
1360, 1965-034B
Orbit
HEO
Country
Flag of USUS
Related business
Manufacturer
MIT-LL
Mission
Spacecraft
Bus & Motor
LES, STAR 13A
Mass
37 kg wet, 37 kg dry
Launch date (UTC)
1965-05-06 (61 years ago)
Launch vehicle
TITAN IIIA
Launch site
Air Force Eastern Test Range (AFETR)
Object type
Payload
Rocket body
Debris
Shape & HBR
Unknown
Radar Cross Section
Medium (>0.1 m² and <1 m²)

Expand to show TLE details & history
Last TLE update: 5 days ago

TLE from 5 days ago
0 LES 2
1 01360U 65034B   26058.42703814 -.00000014  00000-0  00000-0 0  9994
2 01360  32.1335  87.0537 3972774 314.0157  19.3823  4.64833934 32767
Epoch: 2026-02-27T10:14Z
TLE epoch observation values (Epoch: 2026-02-27T10:14:56.095Z)
Latitude
0.00002°
Longitude
136.07347°
Altitude
3,637.412 km
Speed
7.302 km/s
True Right ascension
05h 48m 17s
True Declination
0° 00' 00"
Sunlit
Object was in daylight at epoch
Visualization orbit readout
Latitude
Unknown
Longitude
Unknown
Altitude
Unknown
Speed
Unknown
Apparent Right ascension
Unknown
Apparent Declination
Unknown
Sunlit
N/A
Visualization observer readout
Local Sidereal Time
02:19:58
Azimuth
Unknown
Elevation
Unknown
Doppler factor
Unknown
Orbital elements
Apogee altitude
14,815.954 km
Perigee altitude
2,764.04 km
Semi-major axis
15,168.134 km
Eccentricity
0.39728
Inclination
32.1335°
RAAN
87.0537°
Arg. of periapsis
314.0157°
True anomaly
46.0069°
Mean anomaly
19.3823°
Eccentric anomaly
31.1603°
Mean motion
1.16184 °/min
Orbital period
309.85 mins
BSTAR
0
Loading maneuver chart data...
Computing Atmospheric mass density...
Loading historical data...
Loading historical data...
Loading historical data...
Loading historical data...
Loading historical data...
Loading historical data...
Loading historical data...
Other satellites on launch #34 in the year 1965 (1965-05-06 UTC)

Documentation

Showing up to 5 results
|